Time[GMT],salinity[psu](1m),sigma_t[kg/m^3](1m),conductivity[msiemens/cm](1m),temperature[C](1m)
2019-10-10 18:00,34.326,20.969,58.130,30.74
2019-10-10 19:00,34.285,20.869,58.280,30.94
2019-10-10 20:00,34.229,20.726,58.500,31.23
2019-10-10 21:00,34.303,20.924,58.180,30.82
2019-10-10 22:00,34.295,21.105,57.600,30.28
2019-10-10 23:00,34.288,21.168,57.380,30.08
2019-10-11 00:00,34.285,21.203,57.260,29.97
2019-10-11 01:00,34.280,21.216,57.200,29.92
2019-10-11 02:00,34.276,21.241,57.110,29.84
2019-10-11 03:00,34.271,21.250,57.060,29.80
2019-10-11 04:00,34.265,21.260,57.010,29.76
2019-10-11 05:00,34.267,21.274,56.970,29.72
2019-10-11 06:00,34.269,21.296,56.910,29.66
2019-10-11 07:00,34.262,21.291,56.900,29.66
2019-10-11 08:00,34.263,21.305,56.860,29.62
2019-10-11 09:00,34.263,21.305,56.860,29.62
2019-10-11 10:00,34.264,21.316,56.830,29.59
2019-10-11 11:00,34.270,21.314,56.860,29.61
2019-10-11 12:00,34.270,21.310,56.870,29.62
2019-10-11 13:00,34.269,21.296,56.910,29.66
2019-10-11 14:00,34.266,21.263,57.000,29.75
2019-10-11 15:00,34.269,21.232,57.110,29.85
2019-10-11 16:00,34.268,21.214,57.160,29.90
2019-10-11 17:00,34.269,21.160,57.330,30.06
2019-10-11 18:00,34.273,21.136,57.420,30.14
2019-10-11 19:00,34.294,21.158,57.430,30.12
2019-10-11 20:00,34.280,21.145,57.420,30.13
2019-10-11 21:00,34.281,21.159,57.380,30.09
2019-10-11 22:00,34.278,21.187,57.280,30.00
2019-10-11 23:00,34.286,21.214,57.230,29.94
2019-10-12 00:00,34.281,21.220,57.190,29.91
2019-10-12 01:00,34.282,21.238,57.140,29.86
2019-10-12 02:00,34.284,21.260,57.080,29.80
2019-10-12 03:00,34.292,21.280,57.050,29.76
2019-10-12 04:00,34.279,21.273,57.020,29.75
2019-10-12 05:00,34.286,21.282,57.020,29.74
2019-10-12 06:00,34.273,21.272,57.000,29.74
2019-10-12 07:00,34.280,21.277,57.010,29.74
2019-10-12 08:00,34.281,21.288,56.980,29.71
2019-10-12 09:00,34.288,21.297,56.980,29.70
2019-10-12 10:00,34.287,21.286,57.010,29.73
2019-10-12 11:00,34.281,21.291,56.970,29.70
2019-10-12 12:00,34.281,21.288,56.980,29.71
2019-10-12 13:00,34.272,21.261,57.030,29.77
2019-10-12 14:00,34.285,21.200,57.270,29.98
2019-10-12 15:00,34.278,21.126,57.470,30.18
2019-10-12 16:00,34.304,21.070,57.740,30.40
2019-10-12 17:00,34.364,21.042,58.050,30.61
2019-10-12 18:00,34.358,20.990,58.190,30.75
2019-10-12 19:00,34.271,21.045,57.690,30.40
2019-10-12 20:00,34.267,21.073,57.590,30.31
2019-10-12 21:00,34.311,21.137,57.560,30.22
2019-10-12 22:00,34.305,21.146,57.510,30.18
2019-10-12 23:00,34.301,21.167,57.430,30.11
2019-10-13 00:00,34.296,21.177,57.380,30.07
2019-10-13 01:00,34.293,21.212,57.260,29.96
2019-10-13 02:00,34.274,21.211,57.190,29.92
2019-10-13 03:00,34.275,21.226,57.150,29.88
2019-10-13 04:00,34.262,21.223,57.110,29.86
2019-10-13 05:00,34.257,21.236,57.050,29.81
2019-10-13 06:00,34.251,21.242,57.010,29.78
2019-10-13 07:00,34.232,21.234,56.960,29.76
2019-10-13 08:00,34.227,21.251,56.890,29.70
2019-10-13 09:00,34.234,21.267,56.870,29.67
2019-10-13 10:00,34.215,21.262,56.810,29.64
2019-10-13 11:00,34.215,21.266,56.800,29.63
2019-10-13 12:00,34.208,21.254,56.810,29.65
2019-10-13 13:00,34.207,21.243,56.840,29.68
2019-10-13 14:00,34.217,21.217,56.960,29.78
2019-10-13 15:00,34.215,21.188,57.040,29.86
2019-10-13 16:00,34.212,21.159,57.120,29.94
2019-10-13 17:00,34.216,21.127,57.230,30.04
2019-10-13 18:00,34.219,21.092,57.350,30.15
2019-10-13 19:00,34.221,21.121,57.270,30.07
2019-10-13 20:00,34.216,21.131,57.220,30.03
2019-10-13 21:00,34.210,21.133,57.190,30.01
2019-10-13 22:00,34.212,21.159,57.120,29.94
2019-10-13 23:00,34.215,21.191,57.030,29.85
2019-10-14 00:00,34.211,21.215,56.940,29.77
2019-10-14 01:00,34.196,21.194,56.950,29.80
2019-10-14 02:00,34.205,21.221,56.900,29.74
2019-10-14 03:00,34.212,21.223,56.920,29.75
2019-10-14 04:00,34.206,21.232,56.870,29.71
2019-10-14 05:00,34.205,21.221,56.900,29.74
2019-10-14 06:00,34.206,21.228,56.880,29.72
2019-10-14 07:00,34.206,21.228,56.880,29.72
2019-10-14 08:00,34.206,21.232,56.870,29.71
2019-10-14 09:00,34.206,21.236,56.860,29.70
2019-10-14 10:00,34.206,21.236,56.860,29.70
2019-10-14 11:00,34.214,21.248,56.850,29.68
2019-10-14 12:00,34.220,21.249,56.870,29.69
2019-10-14 13:00,34.220,21.242,56.890,29.71
2019-10-14 14:00,34.218,21.220,56.950,29.77
2019-10-14 15:00,34.214,21.180,57.060,29.88
2019-10-14 16:00,34.225,21.158,57.170,29.97
2019-10-14 17:00,34.232,21.098,57.380,30.16
2019-10-14 18:00,34.233,21.106,57.360,30.14
2019-10-14 19:00,34.227,21.112,57.320,30.11
2019-10-14 20:00,34.228,21.123,57.290,30.08
2019-10-14 21:00,34.249,21.149,57.290,30.05
2019-10-14 22:00,34.244,21.158,57.240,30.01
2019-10-14 23:00,34.248,21.206,57.110,29.88
2019-10-15 00:00,34.242,21.208,57.080,29.86
2019-10-15 01:00,34.251,21.235,57.030,29.80
2019-10-15 02:00,34.245,21.244,56.980,29.76
2019-10-15 03:00,34.245,21.248,56.970,29.75
2019-10-15 04:00,34.245,21.248,56.970,29.75
2019-10-15 05:00,34.259,21.262,56.980,29.74
2019-10-15 06:00,34.266,21.263,57.000,29.75
2019-10-15 07:00,34.274,21.286,56.960,29.70
2019-10-15 08:00,34.279,21.270,57.030,29.76
2019-10-15 09:00,34.280,21.281,57.000,29.73
2019-10-15 10:00,34.293,21.283,57.040,29.75
2019-10-15 11:00,34.287,21.286,57.010,29.73
2019-10-15 12:00,34.280,21.281,57.000,29.73
2019-10-15 13:00,34.286,21.278,57.030,29.75
2019-10-15 14:00,34.296,21.248,57.160,29.86
2019-10-15 15:00,34.300,21.160,57.450,30.13
2019-10-15 16:00,34.308,21.111,57.630,30.29
2019-10-15 17:00,34.349,21.083,57.870,30.46
2019-10-15 18:00,34.320,21.037,57.900,30.53
2019-10-15 19:00,34.400,20.791,58.950,31.41
2019-10-15 20:00,34.245,21.036,57.620,30.37
2019-10-15 21:00,33.840,20.859,56.630,30.00
2019-10-15 22:00,34.067,21.013,57.020,30.05
2019-10-15 23:00,34.192,21.143,57.090,29.94
2019-10-16 00:00,34.188,21.103,57.200,30.05
2019-10-16 01:00,34.117,21.084,56.990,29.95
2019-10-16 02:00,34.272,21.189,57.250,29.98
2019-10-16 03:00,34.308,21.244,57.220,29.90
2019-10-16 04:00,34.323,21.269,57.200,29.86
2019-10-16 05:00,34.336,21.272,57.240,29.88
2019-10-16 06:00,34.348,21.271,57.290,29.91
2019-10-16 07:00,34.381,21.289,57.360,29.93
2019-10-16 08:00,34.408,21.305,57.410,29.94
2019-10-16 09:00,34.383,21.311,57.300,29.87
2019-10-16 10:00,34.393,21.345,57.230,29.79
2019-10-16 11:00,34.401,21.361,57.210,29.76
2019-10-16 12:00,34.393,21.341,57.240,29.80
2019-10-16 13:00,34.399,21.339,57.270,29.82
2019-10-16 14:00,34.401,21.300,57.400,29.94
2019-10-16 15:00,34.403,21.254,57.550,30.08
2019-10-16 16:00,34.415,21.122,58.000,30.49
2019-10-16 17:00,34.451,21.119,58.150,30.58
2019-10-16 18:00,34.426,20.992,58.440,30.89
2019-10-16 19:00,34.400,20.917,58.570,31.05
2019-10-16 20:00,34.421,20.999,58.400,30.86
2019-10-16 21:00,34.428,21.070,58.210,30.67
2019-10-16 22:00,34.415,21.188,57.800,30.30
2019-10-16 23:00,34.412,21.220,57.690,30.20
2019-10-17 00:00,34.416,21.260,57.580,30.09
2019-10-17 01:00,34.411,21.277,57.510,30.03
2019-10-17 02:00,34.406,21.287,57.460,29.99
2019-10-17 03:00,34.401,21.297,57.410,29.95
2019-10-17 04:00,34.403,21.322,57.340,29.88
2019-10-17 05:00,34.397,21.321,57.320,29.87
2019-10-17 06:00,34.404,21.330,57.320,29.86
2019-10-17 07:00,34.364,21.306,57.240,29.84
2019-10-17 08:00,34.378,21.324,57.240,29.82
2019-10-17 09:00,34.386,21.336,57.230,29.80
2019-10-17 10:00,34.353,21.318,57.160,29.78
2019-10-17 11:00,34.353,21.322,57.150,29.77
2019-10-17 12:00,34.345,21.302,57.180,29.81
2019-10-17 13:00,34.336,21.272,57.240,29.88
2019-10-17 14:00,34.334,21.250,57.300,29.94
2019-10-17 15:00,34.338,21.229,57.380,30.01
2019-10-17 16:00,34.343,21.219,57.430,30.05
2019-10-17 17:00,34.341,21.194,57.500,30.12
2019-10-17 18:00,34.347,21.191,57.530,30.14
2019-10-17 19:00,34.350,21.228,57.430,30.04
2019-10-17 20:00,34.349,21.210,57.480,30.09
2019-10-17 21:00,34.362,21.216,57.510,30.10
2019-10-17 22:00,34.352,21.246,57.380,29.99
2019-10-17 23:00,34.353,21.257,57.350,29.96
2019-10-18 00:00,34.354,21.265,57.330,29.94
2019-10-18 01:00,34.361,21.277,57.320,29.92
2019-10-18 02:00,34.349,21.278,57.270,29.89
2019-10-18 03:00,34.349,21.278,57.270,29.89
2019-10-18 04:00,34.357,21.294,57.250,29.86
2019-10-18 05:00,34.364,21.306,57.240,29.84
2019-10-18 06:00,34.357,21.301,57.230,29.84
2019-10-18 07:00,34.365,21.317,57.210,29.81
2019-10-18 08:00,34.366,21.321,57.200,29.80
2019-10-18 09:00,34.367,21.332,57.170,29.77
2019-10-18 10:00,34.361,21.334,57.140,29.75
2019-10-18 11:00,34.367,21.339,57.150,29.75
2019-10-18 12:00,34.368,21.347,57.130,29.73
2019-10-18 13:00,34.368,21.350,57.120,29.72
2019-10-18 14:00,34.360,21.331,57.150,29.76
2019-10-18 15:00,34.347,21.328,57.110,29.74
2019-10-18 16:00,34.358,21.305,57.220,29.83
2019-10-18 17:00,34.329,21.266,57.230,29.88
2019-10-18 18:00,34.345,21.306,57.170,29.80
2019-10-18 19:00,34.344,21.291,57.210,29.84
2019-10-18 20:00,34.358,21.309,57.210,29.82
2019-10-18 21:00,34.365,21.317,57.210,29.81
2019-10-18 22:00,34.359,21.316,57.190,29.80
2019-10-18 23:00,34.366,21.328,57.180,29.78
2019-10-19 00:00,34.366,21.328,57.180,29.78
2019-10-19 01:00,34.366,21.328,57.180,29.78
2019-10-19 02:00,34.367,21.332,57.170,29.77
2019-10-19 03:00,34.373,21.337,57.180,29.77
2019-10-19 04:00,34.367,21.332,57.170,29.77
2019-10-19 05:00,34.367,21.332,57.170,29.77
2019-10-19 06:00,34.381,21.349,57.170,29.75
2019-10-19 07:00,34.374,21.341,57.170,29.76
2019-10-19 08:00,34.388,21.358,57.170,29.74
2019-10-19 09:00,34.387,21.351,57.190,29.76
2019-10-19 10:00,34.400,21.354,57.230,29.78
2019-10-19 11:00,34.414,21.368,57.240,29.77
2019-10-19 12:00,34.413,21.360,57.260,29.79
2019-10-19 13:00,34.421,21.373,57.250,29.77
2019-10-19 14:00,34.420,21.362,57.280,29.80
2019-10-19 15:00,34.419,21.351,57.310,29.83
2019-10-19 16:00,34.418,21.347,57.320,29.84
2019-10-19 17:00,34.411,21.338,57.320,29.85
2019-10-19 18:00,34.412,21.346,57.300,29.83
2019-10-19 19:00,34.405,21.337,57.300,29.84
2019-10-19 20:00,34.385,21.325,57.260,29.83
2019-10-19 21:00,34.366,21.321,57.200,29.80
2019-10-19 22:00,34.366,21.328,57.180,29.78
2019-10-19 23:00,34.367,21.336,57.160,29.76
2019-10-20 00:00,34.374,21.344,57.160,29.75
2019-10-20 01:00,34.387,21.347,57.200,29.77
2019-10-20 02:00,34.380,21.346,57.180,29.76
2019-10-20 03:00,34.374,21.341,57.170,29.76
2019-10-20 04:00,34.381,21.349,57.170,29.75
2019-10-20 05:00,34.381,21.353,57.160,29.74
2019-10-20 06:00,34.389,21.366,57.150,29.72
2019-10-20 07:00,34.375,21.359,57.120,29.71
2019-10-20 08:00,34.383,21.368,57.120,29.70
2019-10-20 09:00,34.390,21.376,57.120,29.69
2019-10-20 10:00,34.390,21.380,57.110,29.68
2019-10-20 11:00,34.383,21.375,57.100,29.68
2019-10-20 12:00,34.383,21.368,57.120,29.70
2019-10-20 13:00,34.382,21.357,57.150,29.73
2019-10-20 14:00,34.388,21.355,57.180,29.75
2019-10-20 15:00,34.366,21.328,57.180,29.78
2019-10-20 16:00,34.372,21.319,57.230,29.82
2019-10-20 17:00,34.372,21.319,57.230,29.82
2019-10-20 18:00,34.377,21.313,57.270,29.85
2019-10-20 19:00,34.377,21.306,57.290,29.87
2019-10-20 20:00,34.377,21.309,57.280,29.86
2019-10-20 21:00,34.385,21.329,57.250,29.82
2019-10-20 22:00,34.379,21.331,57.220,29.80
2019-10-20 23:00,34.372,21.326,57.210,29.80
2019-10-21 00:00,34.373,21.330,57.200,29.79
2019-10-21 01:00,34.367,21.336,57.160,29.76
2019-10-21 02:00,34.380,21.346,57.180,29.76
2019-10-21 03:00,34.373,21.337,57.180,29.77
2019-10-21 04:00,34.380,21.346,57.180,29.76
2019-10-21 05:00,34.374,21.344,57.160,29.75
2019-10-21 06:00,34.374,21.348,57.150,29.74
2019-10-21 07:00,34.375,21.355,57.130,29.72
2019-10-21 08:00,34.376,21.363,57.110,29.70
2019-10-21 09:00,34.375,21.359,57.120,29.71
2019-10-21 10:00,34.376,21.363,57.110,29.70
2019-10-21 11:00,34.376,21.363,57.110,29.70
2019-10-21 12:00,34.383,21.371,57.110,29.69
2019-10-21 13:00,34.383,21.368,57.120,29.70
2019-10-21 14:00,34.382,21.360,57.140,29.72
2019-10-21 15:00,34.381,21.353,57.160,29.74
2019-10-21 16:00,34.388,21.355,57.180,29.75
2019-10-21 17:00,34.393,21.341,57.240,29.80
2019-10-21 18:00,34.392,21.338,57.250,29.81
2019-10-21 19:00,34.392,21.338,57.250,29.81
2019-10-21 20:00,34.386,21.333,57.240,29.81
2019-10-21 21:00,34.393,21.341,57.240,29.80
2019-10-21 22:00,34.393,21.349,57.220,29.78
2019-10-21 23:00,34.394,21.356,57.200,29.76
2019-10-22 00:00,34.401,21.361,57.210,29.76
2019-10-22 01:00,34.401,21.365,57.200,29.75
2019-10-22 02:00,34.408,21.370,57.210,29.75
2019-10-22 03:00,34.402,21.372,57.180,29.73
2019-10-22 04:00,34.402,21.368,57.190,29.74
2019-10-22 05:00,34.402,21.372,57.180,29.73
2019-10-22 06:00,34.402,21.376,57.170,29.72
2019-10-22 07:00,34.410,21.388,57.160,29.70
2019-10-22 08:00,34.403,21.379,57.160,29.71
2019-10-22 09:00,34.409,21.384,57.170,29.71
2019-10-22 10:00,34.410,21.392,57.150,29.69
2019-10-22 11:00,34.410,21.392,57.150,29.69
2019-10-22 12:00,34.237,21.296,56.790,29.59
2019-10-22 13:00,34.350,21.360,57.020,29.65
2019-10-22 14:00,34.383,21.375,57.100,29.68
2019-10-22 15:00,34.396,21.382,57.130,29.69
2019-10-22 16:00,34.409,21.377,57.190,29.73
2019-10-22 17:00,34.407,21.362,57.230,29.77
2019-10-22 18:00,34.406,21.352,57.260,29.80
2019-10-22 19:00,34.406,21.352,57.260,29.80
2019-10-22 20:00,34.400,21.350,57.240,29.79
2019-10-22 21:00,34.394,21.356,57.200,29.76
2019-10-22 22:00,34.389,21.366,57.150,29.72
2019-10-22 23:00,34.376,21.363,57.110,29.70
2019-10-23 00:00,34.370,21.365,57.080,29.68
2019-10-23 01:00,34.377,21.374,57.080,29.67
2019-10-23 02:00,34.229,21.276,56.820,29.63
2019-10-23 03:00,34.297,21.334,56.900,29.61
2019-10-23 04:00,34.318,21.357,56.910,29.59
2019-10-23 05:00,34.344,21.355,57.010,29.65
2019-10-23 06:00,34.345,21.374,56.960,29.60
2019-10-23 07:00,34.345,21.366,56.980,29.62
2019-10-23 08:00,34.351,21.371,56.990,29.62
2019-10-23 09:00,34.352,21.382,56.960,29.59
2019-10-23 10:00,34.352,21.382,56.960,29.59
2019-10-23 11:00,34.372,21.387,57.020,29.62
2019-10-23 12:00,34.379,21.392,57.030,29.62
2019-10-23 13:00,34.371,21.383,57.030,29.63
2019-10-23 14:00,34.384,21.382,57.080,29.66
2019-10-23 15:00,34.382,21.364,57.130,29.71
2019-10-23 16:00,34.387,21.351,57.190,29.76
2019-10-23 17:00,34.380,21.346,57.180,29.76
2019-10-23 18:00,34.383,21.368,57.120,29.70
2019-10-23 19:00,34.382,21.364,57.130,29.71
2019-10-23 20:00,34.382,21.360,57.140,29.72
2019-10-23 21:00,34.389,21.366,57.150,29.72
2019-10-23 22:00,34.376,21.366,57.100,29.69
2019-10-23 23:00,34.377,21.374,57.080,29.67
2019-10-24 00:00,34.378,21.381,57.060,29.65
2019-10-24 01:00,34.371,21.376,57.050,29.65
2019-10-24 02:00,34.371,21.383,57.030,29.63
2019-10-24 03:00,34.371,21.383,57.030,29.63
2019-10-24 04:00,34.372,21.394,57.000,29.60
2019-10-24 05:00,34.379,21.395,57.020,29.61
2019-10-24 06:00,34.392,21.398,57.060,29.63
2019-10-24 07:00,34.386,21.400,57.030,29.61
2019-10-24 08:00,34.392,21.402,57.050,29.62
2019-10-24 09:00,34.392,21.398,57.060,29.63
2019-10-24 10:00,34.399,21.407,57.060,29.62
2019-10-24 11:00,34.405,21.408,57.080,29.63
2019-10-24 12:00,34.399,21.411,57.050,29.61
2019-10-24 13:00,34.393,21.409,57.030,29.60
2019-10-24 14:00,34.399,21.407,57.060,29.62
2019-10-24 15:00,34.399,21.403,57.070,29.63
2019-10-24 16:00,34.398,21.400,57.080,29.64
2019-10-24 17:00,34.391,21.395,57.070,29.64
2019-10-24 18:00,34.391,21.391,57.080,29.65
2019-10-24 19:00,34.391,21.395,57.070,29.64
2019-10-24 20:00,34.399,21.407,57.060,29.62
2019-10-24 21:00,34.399,21.411,57.050,29.61
2019-10-24 22:00,34.406,21.419,57.050,29.60
2019-10-24 23:00,34.406,21.416,57.060,29.61
2019-10-25 00:00,34.406,21.416,57.060,29.61
2019-10-25 01:00,34.406,21.419,57.050,29.60
2019-10-25 02:00,34.413,21.421,57.070,29.61
2019-10-25 03:00,34.420,21.430,57.070,29.60
2019-10-25 04:00,34.414,21.432,57.040,29.58
2019-10-25 05:00,34.422,21.448,57.020,29.55
2019-10-25 06:00,34.421,21.444,57.030,29.56
2019-10-25 07:00,34.428,21.449,57.040,29.56
2019-10-25 08:00,34.429,21.457,57.020,29.54
2019-10-25 09:00,34.429,21.457,57.020,29.54
2019-10-25 10:00,34.429,21.460,57.010,29.53
2019-10-25 11:00,34.429,21.457,57.020,29.54
2019-10-25 12:00,34.436,21.462,57.030,29.54
2019-10-25 13:00,34.436,21.462,57.030,29.54
2019-10-25 14:00,34.442,21.463,57.050,29.55
2019-10-25 15:00,34.428,21.449,57.040,29.56
2019-10-25 16:00,34.427,21.438,57.070,29.59
2019-10-25 17:00,34.433,21.429,57.120,29.63
2019-10-25 18:00,34.432,21.422,57.140,29.65
2019-10-25 19:00,34.425,21.413,57.140,29.66
2019-10-25 20:00,34.439,21.430,57.140,29.64
2019-10-25 21:00,34.433,21.436,57.100,29.61
2019-10-25 22:00,34.434,21.447,57.070,29.58
2019-10-25 23:00,34.435,21.451,57.060,29.57
2019-10-26 00:00,34.436,21.462,57.030,29.54
2019-10-26 01:00,34.435,21.454,57.050,29.56
2019-10-26 02:00,34.435,21.458,57.040,29.55
2019-10-26 03:00,34.436,21.462,57.030,29.54
2019-10-26 04:00,34.443,21.467,57.040,29.54
2019-10-26 05:00,34.443,21.470,57.030,29.53
2019-10-26 06:00,34.443,21.474,57.020,29.52
2019-10-26 07:00,34.436,21.465,57.020,29.53
2019-10-26 08:00,34.424,21.466,56.970,29.50
2019-10-26 09:00,34.425,21.477,56.940,29.47
2019-10-26 10:00,34.425,21.481,56.930,29.46
2019-10-26 11:00,34.431,21.482,56.950,29.47
2019-10-26 12:00,34.431,21.475,56.970,29.49
2019-10-26 13:00,34.443,21.474,57.020,29.52
2019-10-26 14:00,34.449,21.468,57.060,29.55
2019-10-26 15:00,34.448,21.457,57.090,29.58
2019-10-26 16:00,34.454,21.451,57.130,29.61
2019-10-26 17:00,34.473,21.452,57.200,29.65
2019-10-26 18:00,34.471,21.441,57.230,29.68
2019-10-26 19:00,34.465,21.443,57.200,29.66
2019-10-26 20:00,34.465,21.440,57.210,29.67
2019-10-26 21:00,34.466,21.454,57.170,29.63
2019-10-26 22:00,34.461,21.467,57.110,29.58
2019-10-26 23:00,34.468,21.469,57.130,29.59
2019-10-27 00:00,34.469,21.476,57.110,29.57
2019-10-27 01:00,34.455,21.462,57.100,29.58
2019-10-27 02:00,34.456,21.473,57.070,29.55
2019-10-27 03:00,34.456,21.473,57.070,29.55
2019-10-27 04:00,34.450,21.483,57.020,29.51
2019-10-27 05:00,34.444,21.478,57.010,29.51
2019-10-27 06:00,34.431,21.475,56.970,29.49
2019-10-27 07:00,34.437,21.480,56.980,29.49
2019-10-27 08:00,34.431,21.478,56.960,29.48
2019-10-27 09:00,34.445,21.496,56.960,29.46
2019-10-27 10:00,34.437,21.480,56.980,29.49
2019-10-27 11:00,34.445,21.492,56.970,29.47
2019-10-27 12:00,34.431,21.482,56.950,29.47
2019-10-27 13:00,34.451,21.490,57.000,29.49
2019-10-27 14:00,34.457,21.484,57.040,29.52
2019-10-27 15:00,34.475,21.481,57.120,29.57
2019-10-27 16:00,34.474,21.470,57.150,29.60
2019-10-27 17:00,34.479,21.457,57.210,29.65
2019-10-27 18:00,34.480,21.465,57.190,29.63
2019-10-27 19:00,34.505,21.467,57.280,29.68
2019-10-27 20:00,34.473,21.452,57.200,29.65
2019-10-27 21:00,34.475,21.474,57.140,29.59
2019-10-27 22:00,34.469,21.480,57.100,29.56
2019-10-27 23:00,34.469,21.484,57.090,29.55
2019-10-28 00:00,34.476,21.489,57.100,29.55
2019-10-28 01:00,34.470,21.487,57.080,29.54
2019-10-28 02:00,34.477,21.500,57.070,29.52
2019-10-28 03:00,34.484,21.505,57.080,29.52
2019-10-28 04:00,34.491,21.510,57.090,29.52
2019-10-28 05:00,34.498,21.515,57.100,29.52
2019-10-28 06:00,34.505,21.524,57.100,29.51
2019-10-28 07:00,34.498,21.522,57.080,29.50
2019-10-28 08:00,34.498,21.522,57.080,29.50
2019-10-28 09:00,34.512,21.532,57.100,29.50
2019-10-28 10:00,34.519,21.541,57.100,29.49
2019-10-28 11:00,34.531,21.537,57.160,29.53
2019-10-28 12:00,34.539,21.545,57.160,29.52
2019-10-28 13:00,34.545,21.547,57.180,29.53
2019-10-28 14:00,34.550,21.537,57.230,29.57
2019-10-28 15:00,34.549,21.526,57.260,29.60
2019-10-28 16:00,34.535,21.513,57.250,29.61
2019-10-28 17:00,34.541,21.507,57.290,29.64
2019-10-28 18:00,34.535,21.509,57.260,29.62
2019-10-28 19:00,34.530,21.526,57.190,29.56
2019-10-28 20:00,34.531,21.537,57.160,29.53
2019-10-28 21:00,34.532,21.548,57.130,29.50
2019-10-28 22:00,34.559,21.564,57.180,29.51
2019-10-28 23:00,34.578,21.565,57.250,29.55
2019-10-29 00:00,34.579,21.569,57.240,29.54
2019-10-29 01:00,34.579,21.576,57.220,29.52
2019-10-29 02:00,34.600,21.595,57.240,29.51
2019-10-29 03:00,34.594,21.594,57.220,29.50
2019-10-29 04:00,34.601,21.599,57.230,29.50
2019-10-29 05:00,34.595,21.601,57.200,29.48
2019-10-29 06:00,34.595,21.608,57.180,29.46
2019-10-29 07:00,34.602,21.617,57.180,29.45
2019-10-29 08:00,34.610,21.626,57.180,29.44
2019-10-29 09:00,34.612,21.648,57.120,29.38
2019-10-29 10:00,34.631,21.652,57.180,29.41
2019-10-29 11:00,34.633,21.667,57.140,29.37
2019-10-29 12:00,34.639,21.665,57.170,29.39
2019-10-29 13:00,34.638,21.657,57.190,29.41
2019-10-29 14:00,34.638,21.657,57.190,29.41
2019-10-29 15:00,34.631,21.648,57.190,29.42
2019-10-29 16:00,34.634,21.621,57.290,29.51
2019-10-29 17:00,34.632,21.599,57.350,29.57
2019-10-29 18:00,34.638,21.593,57.390,29.60
2019-10-29 19:00,34.623,21.575,57.390,29.62
2019-10-29 20:00,34.610,21.572,57.350,29.60
2019-10-29 21:00,34.604,21.575,57.320,29.58
2019-10-29 22:00,34.599,21.580,57.280,29.55
2019-10-29 23:00,34.599,21.580,57.280,29.55
2019-10-30 00:00,34.607,21.597,57.260,29.52
2019-10-30 01:00,34.608,21.608,57.230,29.49
2019-10-30 02:00,34.602,21.610,57.200,29.47
2019-10-30 03:00,34.602,21.617,57.180,29.45
2019-10-30 04:00,34.603,21.624,57.160,29.43
2019-10-30 05:00,34.604,21.628,57.150,29.42
2019-10-30 06:00,34.611,21.640,57.140,29.40
2019-10-30 07:00,34.626,21.658,57.140,29.38
2019-10-30 08:00,34.627,21.669,57.110,29.35
2019-10-30 09:00,34.627,21.669,57.110,29.35
2019-10-30 10:00,34.628,21.676,57.090,29.33
2019-10-30 11:00,34.636,21.692,57.070,29.30
2019-10-30 12:00,34.656,21.708,57.100,29.30
2019-10-30 13:00,34.655,21.700,57.120,29.32
2019-10-30 14:00,34.655,21.700,57.120,29.32
2019-10-30 15:00,34.654,21.689,57.150,29.35
2019-10-30 16:00,34.664,21.667,57.260,29.44
2019-10-30 17:00,34.662,21.648,57.310,29.49
2019-10-30 18:00,34.668,21.639,57.360,29.53
2019-10-30 19:00,34.658,21.608,57.420,29.60
2019-10-30 20:00,34.659,21.619,57.390,29.57
2019-10-30 21:00,34.660,21.623,57.380,29.56
2019-10-30 22:00,34.662,21.648,57.310,29.49
2019-10-30 23:00,34.670,21.661,57.300,29.47
2019-10-31 00:00,34.669,21.657,57.310,29.48
2019-10-31 01:00,34.677,21.670,57.300,29.46
2019-10-31 02:00,34.672,21.679,57.250,29.42
2019-10-31 03:00,34.665,21.678,57.230,29.41
2019-10-31 04:00,34.667,21.689,57.200,29.38
2019-10-31 05:00,34.660,21.684,57.190,29.38
2019-10-31 06:00,34.654,21.686,57.160,29.36
2019-10-31 07:00,34.654,21.693,57.140,29.34
2019-10-31 08:00,34.654,21.693,57.140,29.34
2019-10-31 09:00,34.654,21.693,57.140,29.34
2019-10-31 10:00,34.662,21.709,57.120,29.31
2019-10-31 11:00,34.662,21.702,57.140,29.33
2019-10-31 12:00,34.668,21.703,57.160,29.34
2019-10-31 13:00,34.675,21.705,57.180,29.35
2019-10-31 14:00,34.667,21.692,57.190,29.37
2019-10-31 15:00,34.665,21.678,57.230,29.41
2019-10-31 16:00,34.670,21.665,57.290,29.46
2019-10-31 17:00,34.668,21.643,57.350,29.52
2019-10-31 18:00,34.669,21.650,57.330,29.50
2019-10-31 19:00,34.669,21.657,57.310,29.48
2019-10-31 20:00,34.663,21.652,57.300,29.48
2019-10-31 21:00,34.663,21.659,57.280,29.46
2019-10-31 22:00,34.664,21.663,57.270,29.45
2019-10-31 23:00,34.665,21.670,57.250,29.43
2019-11-01 00:00,34.659,21.680,57.200,29.39
2019-11-01 01:00,34.660,21.687,57.180,29.37
2019-11-01 02:00,34.661,21.691,57.170,29.36
2019-11-01 03:00,34.660,21.684,57.190,29.38
2019-11-01 04:00,34.660,21.687,57.180,29.37
2019-11-01 05:00,34.593,21.651,57.040,29.33
2019-11-01 06:00,34.642,21.694,57.090,29.31
2019-11-01 07:00,34.649,21.699,57.100,29.31
2019-11-01 08:00,34.655,21.700,57.120,29.32
2019-11-01 09:00,34.661,21.698,57.150,29.34
2019-11-01 10:00,34.662,21.709,57.120,29.31
2019-11-01 11:00,34.663,21.713,57.110,29.30
2019-11-01 12:00,34.663,21.716,57.100,29.29
2019-11-01 13:00,34.669,21.711,57.140,29.32
2019-11-01 14:00,34.673,21.690,57.220,29.39
2019-11-01 15:00,34.673,21.694,57.210,29.38
2019-11-01 16:00,34.681,21.703,57.210,29.37
2019-11-01 17:00,34.680,21.699,57.220,29.38
2019-11-01 18:00,34.679,21.688,57.250,29.41
2019-11-01 19:00,34.679,21.688,57.250,29.41
2019-11-01 20:00,34.686,21.697,57.250,29.40